Terremoto di magnitudo ML 4.3 del 05-01-2024 ore 21:52:00 (UTC) in zona: Confine Grecia Albania (GRECIA, ALBANIA)

Un terremoto di magnitudo ML 4.3 è avvenuto nella zona: Confine Grecia Albania (GRECIA, ALBANIA), il

  • 05-01-2024 21:52:00 (UTC)
  • 05-01-2024 22:52:00 (UTC +01:00) ora italiana

con coordinate geografiche (lat, lon) 39.7760, 20.3190 ad una profondità di 65 km.

Il terremoto è stato localizzato da: Sala Sismica INGV-Roma.

Ricerca terremoti: Qualsiasi nel raggio di 30 km

I valori delle coordinate ipocentrali e della magnitudo rappresentano la migliore stima con i dati a disposizione. Eventuali nuovi dati o analisi potrebbero far variare tali stime.

Visualizza la localizzazione con

Comuni entro 20 km dall'epicentro

Nessun comune italiano entro 20 km dall'epicentro.

Città più vicine con almeno 50000 abitanti

Nessun comune italiano entro 100 km dall'epicentro con almeno 50000 abitanti.

Sismicità recente e storica
Pericolosità sismica
Mappe di scuotimento
Mappa del risentimento sismico
Cronologia delle localizzazioni calcolate
Tipo Magnitudo Tempo origine (UTC) Latitudine Longitudine Profondità (km) Ora pubblicazione (UTC) Autore ID Localizzazione
Rivista
Rev100
ML 4.3 2024-01-05
21:52:00
39.7763 20.3192 65 2024-01-05
22:09:56
Sala Sismica INGV-Roma 124509681
Localizzazione e magnitudo preferite finora.
Parametri della localizzazione preferita

Localizzazione

Campo Valore
Tempo (UTC) 2024-01-05 21:52:00 ± 0.18
Latitudine 39.7763 ± 0.0117
Longitudine 20.3192 ± 0.0140
Profondità (km) 65 ± 2 (from location)
Metodo di valutazione manual
Stato della valutazione reviewed
Versione 100 -> SURVEY-INGV
Tipo di evento earthquake
ID localizzazione 124509681

Incertezze

Campo Valore
Tipo di incertezza uncertainty ellipse
Semi-asse maggiore dell'ellisse di confidenza (metri) 1462
Semi-asse minore dell'ellisse di confidenza (metri) 232
azimuth dell’asse maggiore dell’ellisse di confidenza (gradi) 138
Regione di confidenza sul piano orizzontale espressa mediante singolo valore di incertezza (metri) 1460.0
Livello di confidenza dell'incertezza (%) 68

Qualità

Campo Valore
Maggiore gap azimutale nella distribuzione delle stazioni all'epicentro 221
Numero di fasi associato indipendentemente se utilizzate nella localizzazione (determinazione dell'Origin) 159
Numero di fasi 44
Scarto quadratico medio dei residui di tempo risultanti dal calcolo del tempo origine (Origin) della localizzazione (sec) 0.28
Distanza epicentrale della stazione piu' vicina (gradi) 0.00000
Distanza epicentrale della stazione piu’ lontana (gradi) 3.95162
Numero di stazioni in cui l’evento e’ stato osservato 153
Numero di stazioni usate nel calcolo dell'Origin 40
Parametri della magnitudo

ML:4.3

Campo Valore
Valore 4.3
Incertezza 0.2
Num. stazioni usate 230
Tipo di magnitudo ML
Localizzazione di riferimento 124509681
Agenzia INGV
Autore Sala Sismica INGV-Roma
Tempo di creazione (UTC) 2024-01-05 22:09:55
Tempi di arrivo
SCNL Time Uncertainty Polarity Evaluation_mode Phase Azimuth Distance(km) Takeoff_angle Residual Weight
IV.CROCE.HHZ. 2024-01-05T21:54:16.33 3.0 undecidable manual Sn -5.57 0
IV.HPAC.HHZ. 2024-01-05T21:54:09.57 3.0 undecidable manual Sn -6.13 0
IV.HVZN.HHZ. 2024-01-05T21:54:08.53 3.0 undecidable manual Sn -5.76 0
GU.EQUI.HHZ. 2024-01-05T21:54:07.07 3.0 negative manual Pn 1.08 0
IV.SGTA.HHZ. 2024-01-05T21:54:05.40 3.0 undecidable manual Sg 17.75 0
IV.HLNI.HHZ. 2024-01-05T21:54:03.92 3.0 undecidable manual Sn -5.59 0
IV.SSY.HHZ. 2024-01-05T21:54:02.89 3.0 undecidable manual Sn -5.8 0
OX.PLRO.HHZ. 2024-01-05T21:54:01.93 3.0 negative manual Pn -1.19 0
IV.BDI.HHZ. 2024-01-05T21:54:01.74 3.0 positive manual Pn 0.33 0
IV.STAL.HHZ. 2024-01-05T21:54:01.95 3.0 positive manual Pn -1.01 0
MN.VSL.HHZ. 2024-01-05T21:54:00.21 3.0 negative manual Pn -1.8 0
IV.SEI.HHZ. 2024-01-05T21:53:54.76 3.0 undecidable manual Pn 0.1 0
OX.DRE.HHZ. 2024-01-05T21:53:54.65 3.0 negative manual Pn -1.45 0
IV.IMOL.EHZ. 2024-01-05T21:53:53.56 3.0 positive manual Pn 0.02 0
IV.RUFI.EHZ. 2024-01-05T21:53:51.91 3.0 positive manual Pn 0.02 0
IV.LMD.HHZ. 2024-01-05T21:53:51.16 3.0 positive manual Pn -0.65 0
IV.SFI.EHZ. 2024-01-05T21:53:50.22 3.0 positive manual Pn 0.82 0
IV.CRE.HHZ. 2024-01-05T21:53:46.44 3.0 positive manual Pn -0.12 0
IV.BADI.EHZ. 2024-01-05T21:53:44.22 3.0 positive manual Pn 0.95 0
SL.KOGS.BHZ. 2024-01-05T21:53:43.32 3.0 positive manual Pn -2.42 0
IV.CAFI.HHZ. 2024-01-05T21:53:43.95 3.0 undecidable manual Pn -0.64 0
IV.SACS.HHZ. 2024-01-05T21:53:43.64 3.0 negative manual Pn 1.3 0
IV.PIEI.HHZ. 2024-01-05T21:53:41.25 3.0 positive manual Pn 0.35 0
IV.PESA.HHZ. 2024-01-05T21:53:40.04 3.0 negative manual Pn -1.23 0
IV.ATVO.HHZ. 2024-01-05T21:53:40.92 3.0 positive manual Pn -0.07 0
IV.MGR.HHZ. 2024-01-05T21:53:39.48 3.0 undecidable manual Sn 0 0
IV.FRON.EHZ. 2024-01-05T21:53:38.17 3.0 positive manual Pn -0.95 0
IV.MPAG.EHZ. 2024-01-05T21:53:38.56 3.0 undecidable manual Pn -1.06 0
IV.ASSB.HHZ. 2024-01-05T21:53:37.31 3.0 negative manual Pn 0.73 0
IV.SSFR.HHZ. 2024-01-05T21:53:37.21 3.0 positive manual Pn -0.86 0
SL.BOJS.BHZ. 2024-01-05T21:53:37.42 3.0 negative manual Pn -1.96 0
IV.FOSV.EHZ. 2024-01-05T21:53:36.51 3.0 undecidable manual Pn -0.78 0
IV.ARVD.HHZ. 2024-01-05T21:53:35.99 3.0 positive manual Pn -1.14 0
IV.CESX.HHZ. 2024-01-05T21:53:35.96 3.0 negative manual Pn 1.25 0
IV.ARRO.EHZ. 2024-01-05T21:53:34.03 3.0 positive manual Pn 1.15 0
IV.SNTG.HHZ. 2024-01-05T21:53:34.61 3.0 undecidable manual Pn -0.83 0
IV.MML1.EHZ. 2024-01-05T21:53:33.79 3.0 positive manual Pn -0.44 0
IV.GAVE.EHZ. 2024-01-05T21:53:33.56 3.0 negative manual Pn 1.24 0
IV.CESI.HHZ. 2024-01-05T21:53:33.80 3.0 undecidable manual Pn -0.32 0
IV.FDMO.HHZ. 2024-01-05T21:53:32.97 3.0 negative manual Pn 0.28 0
IV.CSP1.EHZ. 2024-01-05T21:53:31.67 3.0 negative manual Pn -0.35 0
IV.LNSS.HHZ. 2024-01-05T21:53:31.48 3.0 undecidable manual Pn 1.02 0
IV.NRCA.HHZ. 2024-01-05T21:53:31.08 3.0 positive manual Pn -0.08 0
IV.RM33.EHZ. 2024-01-05T21:53:29.18 3.0 positive manual Pn 0.87 0
IV.MMO1.EHZ. 2024-01-05T21:53:29.96 3.0 negative manual Pn 0.29 0
IV.FIAM.HHZ. 2024-01-05T21:53:29.41 3.0 undecidable manual Pn 1.5 0
IV.MF5.EHZ. 2024-01-05T21:53:28.23 3.0 undecidable manual Pn -0.84 0
IV.MNTT.EHZ. 2024-01-05T21:53:28.90 3.0 positive manual Pn 0.51 0
IV.CERT.HHZ. 2024-01-05T21:53:28.02 3.0 positive manual Pn 0.34 0
IV.SMA1.EHZ. 2024-01-05T21:53:28.50 3.0 positive manual Pn 0.59 0
IV.CAMP.HHZ. 2024-01-05T21:53:27.35 3.0 positive manual Pn 0.68 0
IV.LATB.EHZ. 2024-01-05T21:53:25.53 3.0 negative manual Pn -0.55 0
IV.TERO.HHZ. 2024-01-05T21:53:25.83 3.0 negative manual Pn 0.42 0
IV.PTQR.HHZ. 2024-01-05T21:53:25.44 3.0 negative manual Pn 1.47 0
MN.WDD.HHZ. 2024-01-05T21:53:25.56 3.0 positive manual Pn -3.04 0
IV.GIGS.HHZ. 2024-01-05T21:53:25.02 3.0 negative manual Pn 0.35 0
IV.TRTR.HHZ. 2024-01-05T21:53:24.89 3.0 negative manual Pn 1.03 0
IV.FAGN.HHZ. 2024-01-05T21:53:24.49 3.0 negative manual Pn 0.99 0
IV.GUAR.HHZ. 2024-01-05T21:53:24.29 3.0 undecidable manual Pn 0.51 0
IV.GIUL.HHZ. 2024-01-05T21:53:22.03 3.0 negative manual Pn -1.37 0
IV.T0110.HHZ. 2024-01-05T21:53:22.03 3.0 positive manual Pn 0.53 0
IV.VVLD.HHZ. 2024-01-05T21:53:21.63 3.0 undecidable manual Pn 0.53 0
IV.LRP.EHZ. 2024-01-05T21:53:21.05 3.0 positive manual Pn 0.58 0
IV.POFI.HHZ. 2024-01-05T21:53:20.26 3.0 negative manual Pn 0.72 0
MN.BLY.HHZ. 2024-01-05T21:53:19.53 3.0 positive manual Pn -1.28 0
IV.INTR.HHZ. 2024-01-05T21:53:19.51 3.0 undecidable manual Pn 0.4 0
IV.MCI.EHZ. 2024-01-05T21:53:18.67 3.0 negative manual Pn 1.08 0
IV.VENT.EHZ. 2024-01-05T21:53:18.81 3.0 negative manual Pn -0.65 0
IV.LPEL.HHZ. 2024-01-05T21:53:17.37 3.0 negative manual Pn 0.7 0
IV.CSLB.HHZ. 2024-01-05T21:53:17.25 3.0 negative manual Pn -0.11 0
IV.CERA.HHZ. 2024-01-05T21:53:17.57 3.0 negative manual Pn 1.55 0
IV.GIB.HHZ. 2024-01-05T21:53:17.04 3.0 undecidable manual Pn -0.37 0
IV.RNI2.HHZ. 2024-01-05T21:53:16.16 3.0 negative manual Pn 0.97 0
IV.MIDA.HHZ. 2024-01-05T21:53:14.61 3.0 positive manual Pn 0.69 0
IV.VAGA.HHZ. 2024-01-05T21:53:13.27 3.0 positive manual Pn 0.15 0
IV.ISPIC.HHZ. 2024-01-05T21:53:13.26 3.0 positive manual Pn -3.85 0
IV.HPAC.HHZ. 2024-01-05T21:53:13.40 3.0 negative manual Pn -3.13 0
IV.PIGN.HHZ. 2024-01-05T21:53:13.20 3.0 negative manual Pn 0.36 0
IV.HMDC.HHZ. 2024-01-05T21:53:13.60 3.0 negative manual Pn -3.17 0
IV.SGG.HHZ. 2024-01-05T21:53:12.95 3.0 negative manual Pn 1.38 0
IV.TRIV.HHZ. 2024-01-05T21:53:12.25 3.0 positive manual Pn 0.56 0
IV.HVZN.HHZ. 2024-01-05T21:53:12.84 3.0 negative manual Pn -2.9 0
IV.PTRJ.HHZ. 2024-01-05T21:53:10.62 3.0 positive manual Pn 0.63 0
IV.VBKW.HHZ. 2024-01-05T21:53:10.46 3.0 negative manual Pn 1.16 0
IV.BSSO.HHZ. 2024-01-05T21:53:10.79 3.0 positive manual Pn 0.62 0
IV.VTIR.HHZ. 2024-01-05T21:53:10.00 3.0 positive manual Pn 0.85 0
IV.SACR.HHZ. 2024-01-05T21:53:09.27 3.0 positive manual Pn 0.87 0
IV.VITU.HHZ. 2024-01-05T21:53:09.24 3.0 undecidable manual Pn 0.97 0
IV.PAOL.HHZ. 2024-01-05T21:53:09.05 3.0 positive manual Pn 0.69 0
IV.GATE.HHZ. 2024-01-05T21:53:07.66 3.0 positive manual Pn 0.71 0
IV.MUCR.HHZ. 2024-01-05T21:53:07.90 3.0 undecidable manual Pn -0.73 0
IV.PSB1.HHZ. 2024-01-05T21:53:07.08 3.0 undecidable manual Pn 0.45 0
IV.IFIL.HHZ. 2024-01-05T21:53:07.72 3.0 negative manual Pn -1.45 0
CR.HVAR.HHZ. 2024-01-05T21:53:05.39 3.0 positive manual Pn -1.56 0
IV.MRB1.HHZ. 2024-01-05T21:53:05.22 3.0 undecidable manual Pn 0.56 0
IV.MELA.HHZ. 2024-01-05T21:53:05.94 3.0 positive manual Pn 0.04 0
IV.TREM.HHZ. 2024-01-05T21:53:04.76 3.0 negative manual Pn -0.31 0
IV.AIO.HHZ. 2024-01-05T21:53:04.75 3.0 positive manual Pn -0.74 0
IV.MOCO.HHZ. 2024-01-05T21:53:04.80 3.0 positive manual Pn 0.94 0
MN.DIVS.HHZ. 2024-01-05T21:53:03.55 3.0 negative manual Pn -1.24 0
IX.SSB3.HHZ.02 2024-01-05T21:53:03.43 3.0 negative manual Pn 1.54 0
OT.OT11.EHZ. 2024-01-05T21:53:03.10 3.0 positive manual Pn 0.22 0
IV.CAFE.HHZ. 2024-01-05T21:53:01.92 3.0 negative manual Pn 0.3 0
IV.APRC.HHZ. 2024-01-05T21:53:01.87 3.0 positive manual Pn -0.47 0
IV.SNAL.HHZ. 2024-01-05T21:53:01.15 3.0 negative manual Pn -0.37 0
IV.SGO.HHZ. 2024-01-05T21:53:00.26 3.0 positive manual Pn 0.81 0
OT.OT05.EHZ. 2024-01-05T21:53:00.57 3.0 positive manual Pn -0.62 0
IX.COL3.HHZ.02 2024-01-05T21:53:00.29 3.0 negative manual Pn 0.75 0
OT.OT14.EHZ. 2024-01-05T21:52:59.32 0.1 undecidable manual P 304 438.6276 94 -0.34 24
IV.CMPR.HHZ. 2024-01-05T21:52:59.65 3.0 positive manual Pn 0.62 0
IV.CDRU.HHZ. 2024-01-05T21:52:59.49 3.0 positive manual Pn 0.17 0
IV.MRLC.HHZ. 2024-01-05T21:52:58.01 3.0 positive manual Pn -0.12 0
IV.SICLA.EHZ. 2024-01-05T21:52:58.41 3.0 negative manual Pn -0.69 0
IX.SRN3.HHZ.02 2024-01-05T21:52:58.77 3.0 negative manual Pn 1.04 0
IV.SOI.EHZ. 2024-01-05T21:52:58.47 0.3 undecidable manual P 244 413.6748 94 1.91 9
IV.BULG.HHZ. 2024-01-05T21:52:58.45 3.0 undecidable manual Pn 0.47 0
OT.OT12.EHZ. 2024-01-05T21:52:57.50 0.3 undecidable manual P 300 424.2531 94 -0.37 18
IV.MTSN.HHZ. 2024-01-05T21:52:55.19 3.0 negative manual Pn 0.93 0
MN.CUC.HHZ. 2024-01-05T21:52:54.64 0.3 undecidable manual P 275 384.1266 95 1.75 10
CR.STON.BHZ. 2024-01-05T21:52:54.22 0.3 undecidable manual P 328 406.7817 94 -1.49 12
IV.SIRI.HHZ. 2024-01-05T21:52:53.30 0.3 undecidable manual P 278 381.0297 95 0.79 17
IV.GRIS.EHZ. 2024-01-05T21:52:53.12 0.3 undecidable manual P 271 380.8299 95 0.63 18
IV.MCEL.HHZ. 2024-01-05T21:52:53.98 0.1 undecidable manual P 280 388.3224 95 0.56 24
IV.ACER.HHZ. 2024-01-05T21:52:53.42 0.3 undecidable manual P 288 386.9238 95 0.18 20
IY.SPDC.HHZ. 2024-01-05T21:52:52.42 0.3 undecidable manual P 250 385.9248 95 -0.69 17
IV.CET2.HHZ. 2024-01-05T21:52:52.69 0.3 undecidable manual P 267 373.7481 95 1.08 15
IV.PTRP.HHZ. 2024-01-05T21:52:52.31 0.3 undecidable manual P 284 370.3515 95 1.13 14
XE.MORMA.HHZ. 2024-01-05T21:52:52.94 0.3 undecidable manual P 273 370.4514 95 1.74 10
IV.SCHR.EHZ. 2024-01-05T21:52:51.92 0.3 undecidable manual P 279 363.6582 95 1.57 11
IV.MRVN.HHZ. 2024-01-05T21:52:51.85 0.3 undecidable manual P 294 376.2345 95 -0.06 21
IV.GIZZ.HHZ. 2024-01-05T21:52:50.75 0.3 undecidable manual P 257 363.4584 95 0.43 19
IV.PLAC.HHZ. 2024-01-05T21:52:49.82 0.3 undecidable manual P 247 364.9569 95 -0.7 18
XE.T0701.HHZ. 2024-01-05T21:52:49.79 0.3 undecidable manual P 275 358.4745 95 0.07 21
IV.SPS2.HHZ. 2024-01-05T21:52:48.14 0.3 undecidable manual P 262 344.7993 95 0.13 21
IV.GRI.EHZ. 2024-01-05T21:52:48.21 0.1 undecidable manual P 254 351.0819 95 -0.58 25
IV.TDS.HHZ. 2024-01-05T21:52:48.24 0.6 undecidable manual P 269 340.0041 95 0.83 11
IV.AMUR.HHZ. 2024-01-05T21:52:47.00 0.1 undecidable manual P 293 338.2059 95 -0.2 28
IV.MIGL.HHZ. 2024-01-05T21:52:47.93 0.1 undecidable manual P 287 341.2029 95 0.36 27
XE.BIDON.HHZ. 2024-01-05T21:52:46.22 0.1 undecidable manual P 275 329.5257 95 0.1 29
IV.SALB.HHZ. 2024-01-05T21:52:46.94 0.1 undecidable manual P 273 338.7054 95 -0.32 27
MN.TIR.HHZ. 2024-01-05T21:52:46.80 0.6 undecidable manual S 348 178.488 101 -0.27 38
IV.SELL.HHZ. 2024-01-05T21:52:45.27 0.1 undecidable manual P 256 328.5267 95 -0.72 24
IV.CELI.HHZ. 2024-01-05T21:52:45.92 0.1 undecidable manual P 264 328.3269 95 -0.05 29
OT.OT15.EHZ. 2024-01-05T21:52:45.36 0.1 undecidable manual P 298 325.8294 96 -0.31 28
GE.MATE.HHZ. 2024-01-05T21:52:44.74 0.1 undecidable manual P 289 321.1341 96 -0.34 28
IV.SERS.HHZ. 2024-01-05T21:52:44.56 0.1 undecidable manual P 256 321.8334 96 -0.61 25
IV.SCTE.HHZ. 2024-01-05T21:52:42.59 0.6 undecidable manual S 282 160.9167 103 -0.78 35
MN.PDG.HHZ. 2024-01-05T21:52:42.71 0.1 undecidable manual P 344 307.359 96 -0.67 26
IV.PIPA.HHZ. 2024-01-05T21:52:42.59 0.1 undecidable manual P 265 301.0764 96 0 30
IV.NOCI.HNZ. 2024-01-05T21:52:41.92 0.1 undecidable manual P 293 297.48 96 -0.23 30
IY.CIRK.HHZ.00 2024-01-05T21:52:40.59 0.1 undecidable manual P 262 281.8068 97 0.38 35
OT.TAR1.HHZ. 2024-01-05T21:52:38.61 0.1 undecidable manual P 289 270.4293 97 -0.2 41
IV.MESG.HHZ. 2024-01-05T21:52:33.67 0.1 undecidable manual P 294 227.8053 98 0.12 58
AC.KBN.HHZ.00 2024-01-05T21:52:31.79 0.6 undecidable manual S 23 102.0201 113 0.54 44
MN.TIR.HHZ. 2024-01-05T21:52:27.73 0.1 undecidable manual P 348 178.488 101 0.23 75
IV.SCTE.HHZ. 2024-01-05T21:52:25.55 0.1 undecidable manual P 282 160.9167 103 0.18 83
MN.KEK.HHZ. 2024-01-05T21:52:21.51 0.3 undecidable manual S 261 45.1215 139 0.33 79
AC.KBN.HHZ.00 2024-01-05T21:52:18.13 0.1 undecidable manual P 23 102.0201 113 -0.24 96
MN.KEK.HHZ. 2024-01-05T21:52:12.07 0.1 undecidable manual P 261 45.1215 139 -0.48 100
Ampiezza e Magnitudo per ciascuna stazione
SCNL mag Generic_amplitude Period Type Category Unit Time_window_reference
AC.KBN.HHE.00 ML:3.7 0.00352 1 AML other m 2024-01-05T21:52:42.34
AC.KBN.HHN.00 ML:3.8 0.00424 0.56 AML other m 2024-01-05T21:52:43.85
IV.MTSN.HHE. ML:4.3 0.0012999999999999997 0.18 AML other m 2024-01-05T21:52:59.52
IV.MTSN.HNE. ML:4.3 0.00121 0.18 AML other m 2024-01-05T21:52:59.52
IV.SCTE.HHN. ML:4.1 0.0048000000000000004 0.44 AML other m 2024-01-05T21:52:59.69
IV.MCEL.HNN. ML:4.5 0.0021349999999999997 1.5 AML other m 2024-01-05T21:52:59.22
IV.MCEL.HNE. ML:4.6 0.0024649999999999997 0.9 AML other m 2024-01-05T21:53:00.34
IV.MCEL.HHE. ML:4.1 0.0007655000000000001 0.2 AML other m 2024-01-05T21:53:00.96
IV.SGO.HHN. ML:4.2 0.0007549999999999999 0.2 AML other m 2024-01-05T21:53:02.20
IV.CMPR.HHE. ML:4.0 0.0005315 0.4 AML other m 2024-01-05T21:53:02.34
IV.CMPR.HNE. ML:4.0 0.0005405 0.42 AML other m 2024-01-05T21:53:02.35
IV.SGO.HHE. ML:4.2 0.0007869999999999999 1.48 AML other m 2024-01-05T21:53:02.21
IV.CDRU.HHN. ML:4.0 0.00042300000000000004 0.86 AML other m 2024-01-05T21:53:03.56
IV.CDRU.HNN. ML:4.0 0.00044950000000000003 0.86 AML other m 2024-01-05T21:53:03.57
IV.CDRU.HNE. ML:4.2 0.0007379999999999999 0.2 AML other m 2024-01-05T21:53:03.59
IV.SCTE.HHE. ML:4.2 0.006189999999999999 1.22 AML other m 2024-01-05T21:53:03.91
IV.CDRU.HHE. ML:4.2 0.0008065 0.8 AML other m 2024-01-05T21:53:03.59
IV.BULG.HNN. ML:4.3 0.0009325 0.52 AML other m 2024-01-05T21:53:04.12
IX.COL3.HNN.01 ML:4.2 0.000767 0.44 AML other m 2024-01-05T21:53:04.46
IX.COL3.HHN.02 ML:4.3 0.0008950000000000001 0.44 AML other m 2024-01-05T21:53:04.46
IV.SNAL.HHE. ML:4.2 0.000714 0.34 AML other m 2024-01-05T21:53:05.62
IV.SNAL.HNE. ML:4.2 0.0006734999999999999 0.32 AML other m 2024-01-05T21:53:05.62
IV.TREM.HHE. ML:4.6 0.001435 1.46 AML other m 2024-01-05T21:53:05.97
IX.SSB3.HHN.02 ML:4.3 0.00087 0.52 AML other m 2024-01-05T21:53:06.70
IV.TREM.HHN. ML:4.8 0.0022 0.54 AML other m 2024-01-05T21:53:06.58
IX.SSB3.HNN.01 ML:4.3 0.0008655000000000001 0.52 AML other m 2024-01-05T21:53:06.96
IV.MRB1.HHN. ML:4.6 0.0012850000000000001 1.46 AML other m 2024-01-05T21:53:08.16
IV.MRB1.HNN. ML:4.6 0.00124 1.46 AML other m 2024-01-05T21:53:08.16
IV.GATE.HNN. ML:4.5 0.0010400000000000001 0.44 AML other m 2024-01-05T21:53:09.16
IX.SSB3.HNE.01 ML:4.3 0.00086 0.44 AML other m 2024-01-05T21:53:09.93
IX.SSB3.HHE.02 ML:4.3 0.000865 0.48 AML other m 2024-01-05T21:53:09.96
IV.MOCO.HNN. ML:4.0 0.0003755 0.66 AML other m 2024-01-05T21:53:10.41
IV.MOCO.HHN. ML:4.0 0.000383 0.66 AML other m 2024-01-05T21:53:10.41
IV.PTRP.HHN. ML:4.2 0.0011175 0.5 AML other m 2024-01-05T21:53:11.20
IV.VITU.HNE. ML:4.3 0.0005745 1.14 AML other m 2024-01-05T21:53:11.88
IV.CAFE.HHN. ML:4.2 0.000606 0.5 AML other m 2024-01-05T21:53:11.46
IV.CAFE.HNN. ML:4.2 0.0006145 0.58 AML other m 2024-01-05T21:53:11.46
IV.SACR.HHE. ML:4.2 0.0004425 0.36 AML other m 2024-01-05T21:53:11.51
IV.GATE.HNE. ML:4.8 0.0017250000000000002 0.44 AML other m 2024-01-05T21:53:11.32
IV.GATE.HHE. ML:4.8 0.001715 0.46 AML other m 2024-01-05T21:53:11.32
IV.VITU.HHE. ML:4.5 0.000851 0.8 AML other m 2024-01-05T21:53:11.76
IV.PAOL.HNE. ML:4.3 0.0005349999999999999 1.64 AML other m 2024-01-05T21:53:11.84
IV.PAOL.HHE. ML:4.3 0.0005430000000000001 1.64 AML other m 2024-01-05T21:53:11.03
MN.TIR.HHE. ML:4.1 0.00396 0.54 AML other m 2024-01-05T21:53:12.19
IV.MRVN.HHE. ML:4.1 0.000755 0.76 AML other m 2024-01-05T21:53:12.29
IV.VITU.HHN. ML:4.5 0.0008814999999999999 0.98 AML other m 2024-01-05T21:53:12.81
IV.PAOL.HNN. ML:4.4 0.000797 0.68 AML other m 2024-01-05T21:53:12.84
IV.PAOL.HHN. ML:4.4 0.000745 0.68 AML other m 2024-01-05T21:53:12.84
IV.SACR.HNN. ML:4.2 0.000439 0.4 AML other m 2024-01-05T21:53:13.34
IV.SACR.HHN. ML:4.2 0.00046550000000000004 0.42 AML other m 2024-01-05T21:53:13.34
IV.TRIV.HHE. ML:4.3 0.00044950000000000003 1.3 AML other m 2024-01-05T21:53:13.09
IV.TRIV.HNE. ML:4.3 0.0005405 1.3 AML other m 2024-01-05T21:53:13.09
IY.CIRK.HHE.00 ML:4.3 0.0029649999999999998 0.42 AML other m 2024-01-05T21:53:13.74
IY.CIRK.HHN.00 ML:4.4 0.003585 1.52 AML other m 2024-01-05T21:53:13.81
IV.BSSO.HHN. ML:4.4 0.000669 1.06 AML other m 2024-01-05T21:53:14.55
IV.PTRJ.HHE. ML:4.6 0.001081 0.5 AML other m 2024-01-05T21:53:14.01
IV.PTRP.HHE. ML:4.3 0.001465 0.56 AML other m 2024-01-05T21:53:14.27
IV.PSB1.HHE. ML:4.0 0.00034050000000000004 0.64 AML other m 2024-01-05T21:53:14.51
IV.PTRJ.HHN. ML:4.5 0.000758 1.7 AML other m 2024-01-05T21:53:14.07
MN.TIR.HHN. ML:4.2 0.004695 0.88 AML other m 2024-01-05T21:53:15.15
IV.GATE.HHN. ML:4.5 0.0010249999999999999 0.56 AML other m 2024-01-05T21:53:15.93
IV.PIPA.HNE. ML:4.4 0.00279 0.54 AML other m 2024-01-05T21:53:16.43
IV.VTIR.HHE. ML:4.3 0.0005 0.46 AML other m 2024-01-05T21:53:17.24
IV.PIPA.HHE. ML:4.4 0.002785 0.3 AML other m 2024-01-05T21:53:17.43
IV.MESG.HNE. ML:4.3 0.003995 0.86 AML other m 2024-01-05T21:53:17.95
IV.MESG.HHE. ML:4.3 0.004125 0.84 AML other m 2024-01-05T21:53:17.94
IV.ACER.HHE. ML:4.6 0.0027 0.34 AML other m 2024-01-05T21:53:17.57
IV.ACER.HNE. ML:4.6 0.00263 0.36 AML other m 2024-01-05T21:53:17.57
XE.BIDON.HNE. ML:4.3 0.0017850000000000001 1.68 AML other m 2024-01-05T21:53:17.96
IV.VAGA.HNE. ML:4.4 0.0005164999999999999 1.2 AML other m 2024-01-05T21:53:18.10
IV.MRB1.HHE. ML:4.5 0.001105 1.44 AML other m 2024-01-05T21:53:18.92
IV.MRB1.HNE. ML:4.5 0.0010950000000000003 1.44 AML other m 2024-01-05T21:53:18.20
IV.BULG.HNE. ML:4.2 0.0008125 0.46 AML other m 2024-01-05T21:53:18.24
IV.BULG.HHE. ML:4.2 0.0008575000000000001 0.44 AML other m 2024-01-05T21:53:18.24
IV.PIPA.HHN. ML:4.2 0.002075 0.32 AML other m 2024-01-05T21:53:18.54
IV.PIPA.HNN. ML:4.4 0.00328 0.86 AML other m 2024-01-05T21:53:18.53
IV.PSB1.HHN. ML:4.0 0.000266 1.5 AML other m 2024-01-05T21:53:18.21
IV.LPEL.HNN. ML:4.4 0.000546 0.46 AML other m 2024-01-05T21:53:19.19
IV.RNI2.HNN. ML:4.6 0.000716 0.5 AML other m 2024-01-05T21:53:19.50
IV.CERA.HNE. ML:4.6 0.0006655 0.48 AML other m 2024-01-05T21:53:19.57
IV.MCEL.HHN. ML:4.1 0.0008195 0.52 AML other m 2024-01-05T21:53:19.33
IV.CERA.HHE. ML:4.6 0.0006779999999999999 0.48 AML other m 2024-01-05T21:53:19.57
IV.RNI2.HHE. ML:4.7 0.0010750000000000002 0.48 AML other m 2024-01-05T21:53:19.44
IV.RNI2.HNE. ML:4.7 0.001029 0.48 AML other m 2024-01-05T21:53:19.45
IV.VTIR.HHN. ML:4.2 0.0004115 0.84 AML other m 2024-01-05T21:53:20.54
IV.MRLC.HNN. ML:4.0 0.0004615 0.34 AML other m 2024-01-05T21:53:20.36
IV.VAGA.HHN. ML:4.5 0.000687 0.34 AML other m 2024-01-05T21:53:20.56
IV.VAGA.HNN. ML:4.5 0.0006635 0.36 AML other m 2024-01-05T21:53:20.57
OT.OT15.EHN. ML:4.0 0.0010225 0.3 AML other m 2024-01-05T21:53:20.95
OT.OT15.EHE. ML:4.1 0.0013399999999999998 0.26 AML other m 2024-01-05T21:53:20.81
IV.VBKW.HHN. ML:4.5 0.000843 1.48 AML other m 2024-01-05T21:53:20.24
IV.RNI2.HHN. ML:4.6 0.0007170000000000001 0.48 AML other m 2024-01-05T21:53:21.09
IV.SERS.HNN. ML:4.0 0.0009775 0.54 AML other m 2024-01-05T21:53:21.40
IV.BSSO.HHE. ML:4.4 0.000676 0.38 AML other m 2024-01-05T21:53:21.28
IV.SERS.HHE. ML:3.9 0.000857 0.52 AML other m 2024-01-05T21:53:21.39
IV.SERS.HHN. ML:4.0 0.0010580000000000001 0.68 AML other m 2024-01-05T21:53:21.16
IV.SERS.HNE. ML:4.0 0.0009400000000000001 0.72 AML other m 2024-01-05T21:53:21.16
IV.CERA.HNN. ML:4.6 0.0006594999999999999 0.42 AML other m 2024-01-05T21:53:21.48
IV.MESG.HNN. ML:4.3 0.004495 0.64 AML other m 2024-01-05T21:53:22.09
IV.MESG.HHN. ML:4.3 0.004575 0.64 AML other m 2024-01-05T21:53:22.09
IV.CERA.HHN. ML:4.6 0.0006835 0.34 AML other m 2024-01-05T21:53:22.48
IX.SRN3.HHE.02 ML:4.3 0.000922 0.32 AML other m 2024-01-05T21:53:22.54
XE.BIDON.HHE. ML:4.2 0.00165 0.74 AML other m 2024-01-05T21:53:23.93
IV.SELL.HNE. ML:4.4 0.0025150000000000003 0.46 AML other m 2024-01-05T21:53:23.64
IV.SELL.HHE. ML:3.9 0.000811 0.46 AML other m 2024-01-05T21:53:23.64
IV.VAGA.HHE. ML:4.4 0.0004815 1.48 AML other m 2024-01-05T21:53:24.07
IV.AMUR.HNN. ML:4.2 0.0013050000000000002 0.3 AML other m 2024-01-05T21:53:24.07
IX.SRN3.HHN.02 ML:4.4 0.00115 0.74 AML other m 2024-01-05T21:53:24.29
IX.SRN3.HNN.01 ML:4.4 0.0012250000000000002 0.74 AML other m 2024-01-05T21:53:24.29
IV.SALB.HHE. ML:4.1 0.00123 0.76 AML other m 2024-01-05T21:53:24.81
IV.SALB.HNE. ML:4.1 0.00123 0.76 AML other m 2024-01-05T21:53:24.82
IX.SRN3.HNE.01 ML:4.3 0.001006 1.64 AML other m 2024-01-05T21:53:25.87
IV.SELL.HNN. ML:4.2 0.001625 0.66 AML other m 2024-01-05T21:53:26.31
IV.SELL.HHN. ML:3.7 0.0005265 0.66 AML other m 2024-01-05T21:53:26.32
IV.CMPR.HHN. ML:4.0 0.00046750000000000003 0.44 AML other m 2024-01-05T21:53:26.12
IV.VBKW.HHE. ML:4.5 0.0008565000000000001 0.48 AML other m 2024-01-05T21:53:26.47
IV.LPEL.HHN. ML:4.5 0.0005475 0.88 AML other m 2024-01-05T21:53:26.25
IV.TRIV.HNN. ML:4.4 0.0005525 0.72 AML other m 2024-01-05T21:53:27.36
IV.TRIV.HHN. ML:4.3 0.000427 0.7 AML other m 2024-01-05T21:53:27.36
IV.GRI.EHN. ML:4.2 0.001335 1.34 AML other m 2024-01-05T21:53:27.80
IV.CELI.HHE. ML:3.7 0.0005225 0.62 AML other m 2024-01-05T21:53:27.51
IV.CELI.HNE. ML:3.7 0.0005204999999999999 1.36 AML other m 2024-01-05T21:53:27.68
IV.SALB.HHN. ML:3.9 0.000714 1.26 AML other m 2024-01-05T21:53:28.21
IV.SALB.HNN. ML:3.9 0.0007085 1.24 AML other m 2024-01-05T21:53:28.22
IV.CAFE.HNE. ML:4.4 0.00091 0.36 AML other m 2024-01-05T21:53:28.53
IV.CAFE.HHE. ML:4.4 0.0009165000000000001 0.36 AML other m 2024-01-05T21:53:28.53
IV.TDS.HHN. ML:3.6 0.00034849999999999996 0.48 AML other m 2024-01-05T21:53:28.99
IV.PLAC.HHE. ML:4.2 0.0012250000000000002 0.5 AML other m 2024-01-05T21:53:29.02
IV.PLAC.HNE. ML:4.2 0.001166 0.48 AML other m 2024-01-05T21:53:29.04
IV.LPEL.HHE. ML:4.5 0.0006215 0.66 AML other m 2024-01-05T21:53:29.55
IV.SPS2.HHE. ML:3.7 0.000411 0.44 AML other m 2024-01-05T21:53:30.29
IV.PLAC.HNN. ML:4.3 0.001335 0.92 AML other m 2024-01-05T21:53:30.12
IV.GRI.EHE. ML:4.2 0.001445 1.52 AML other m 2024-01-05T21:53:30.11
OT.TAR1.HHE. ML:4.2 0.0025499999999999997 0.96 AML other m 2024-01-05T21:53:31.49
IV.MRLC.HNE. ML:4.0 0.000482 0.48 AML other m 2024-01-05T21:53:31.62
IV.MRLC.HHE. ML:3.9 0.0003925 0.46 AML other m 2024-01-05T21:53:31.62
IV.LPEL.HNE. ML:4.5 0.0006465 1.36 AML other m 2024-01-05T21:53:31.21
IV.SCHR.EHN. ML:3.8 0.000504 0.64 AML other m 2024-01-05T21:53:32.23
IV.GIZZ.HHE. ML:4.4 0.0019850000000000002 0.48 AML other m 2024-01-05T21:53:33.14
IV.TDS.HHE. ML:3.6 0.0003815 0.48 AML other m 2024-01-05T21:53:33.59
IV.GIZZ.HHN. ML:4.4 0.00181 0.36 AML other m 2024-01-05T21:53:33.75
IV.PLAC.HHN. ML:4.2 0.0011899999999999999 1.4 AML other m 2024-01-05T21:53:34.08
OT.OT11.EHE. ML:4.5 0.00125 1.56 AML other m 2024-01-05T21:53:34.04
IV.GRIS.EHE. ML:4.1 0.000786 0.46 AML other m 2024-01-05T21:53:35.03
IV.MOCO.HHE. ML:4.3 0.0006525 0.48 AML other m 2024-01-05T21:53:35.35
IV.MOCO.HNE. ML:4.2 0.000643 0.46 AML other m 2024-01-05T21:53:35.35
IV.SPS2.HHN. ML:3.7 0.0004575 0.58 AML other m 2024-01-05T21:53:35.46
IV.CET2.HHE. ML:4.2 0.001165 0.96 AML other m 2024-01-05T21:53:35.81
XE.MORMA.HHN. ML:4.0 0.000655 0.38 AML other m 2024-01-05T21:53:36.26
XE.MORMA.HNN. ML:4.0 0.0006680000000000001 0.36 AML other m 2024-01-05T21:53:36.26
IV.GRIS.EHN. ML:3.9 0.000527 1.36 AML other m 2024-01-05T21:53:37.81
XE.MORMA.HHE. ML:4.2 0.00108 0.48 AML other m 2024-01-05T21:53:37.52
XE.MORMA.HNE. ML:4.2 0.0011155 0.48 AML other m 2024-01-05T21:53:37.52
IY.SPDC.HHE. ML:4.9 0.0048 1.6 AML other m 2024-01-05T21:53:38.99
IV.SIRI.HHE. ML:4.1 0.0007989999999999999 0.3 AML other m 2024-01-05T21:53:38.29
IV.SIRI.HNE. ML:4.1 0.0007880000000000001 0.3 AML other m 2024-01-05T21:53:38.29
IV.CET2.HHN. ML:4.4 0.001635 0.42 AML other m 2024-01-05T21:53:38.58
OT.TAR1.HHN. ML:4.2 0.002165 0.5 AML other m 2024-01-05T21:53:38.60
IV.NOCI.HNN. ML:4.4 0.00313 1.6 AML other m 2024-01-05T21:53:38.11
IV.NOCI.HHN. ML:4.4 0.0032749999999999997 1.62 AML other m 2024-01-05T21:53:38.11
IV.NOCI.HHE. ML:4.4 0.002785 0.4 AML other m 2024-01-05T21:53:39.41
MN.CUC.HHN. ML:4.0 0.0005809999999999999 0.56 AML other m 2024-01-05T21:53:39.46
MN.CUC.HNN. ML:3.9 0.0005415 0.58 AML other m 2024-01-05T21:53:39.46
IV.NOCI.HNE. ML:4.4 0.0027249999999999996 1.38 AML other m 2024-01-05T21:53:39.90
IY.SPDC.HHN. ML:4.8 0.003765 0.46 AML other m 2024-01-05T21:53:40.42
OT.OT12.EHN. ML:4.2 0.0007109999999999999 1 AML other m 2024-01-05T21:53:41.56
IV.SIRI.HHN. ML:4.2 0.0010854999999999999 0.66 AML other m 2024-01-05T21:53:41.13
IV.SIRI.HNN. ML:4.2 0.001063 0.66 AML other m 2024-01-05T21:53:41.13
MN.CUC.HHE. ML:4.0 0.0006594999999999999 0.68 AML other m 2024-01-05T21:53:41.56
MN.CUC.HNE. ML:4.0 0.0006630000000000001 0.66 AML other m 2024-01-05T21:53:41.57
IV.SOI.EHN. ML:4.1 0.000653 1.24 AML other m 2024-01-05T21:53:41.13
XE.T0701.HHE. ML:3.9 0.00061 1.1 AML other m 2024-01-05T21:53:42.98
IV.MTSN.HHN. ML:4.2 0.000968 0.36 AML other m 2024-01-05T21:53:42.89
XE.T0701.HNE. ML:3.6 0.000317 1.24 AML other m 2024-01-05T21:53:43.98
IV.SCHR.EHE. ML:3.9 0.0005845000000000001 1.52 AML other m 2024-01-05T21:53:44.00
MN.PDG.HHE. ML:3.9 0.000996 1.36 AML other m 2024-01-05T21:53:45.68
IV.SOI.EHE. ML:4.3 0.00101 1.58 AML other m 2024-01-05T21:53:45.80
MN.PDG.HNE. ML:4.0 0.0010184999999999999 1.36 AML other m 2024-01-05T21:53:45.69
OT.OT14.EHN. ML:4.7 0.0021100000000000003 1.4 AML other m 2024-01-05T21:53:45.03
IV.SICLA.EHE. ML:4.6 0.001955 0.48 AML other m 2024-01-05T21:53:45.54
IV.BULG.HHN. ML:4.3 0.000976 0.6 AML other m 2024-01-05T21:53:45.94
OT.OT14.EHE. ML:4.6 0.00181 1.72 AML other m 2024-01-05T21:53:45.99
IV.SICLA.EHN. ML:4.5 0.001315 0.68 AML other m 2024-01-05T21:53:47.69
MN.PDG.HHN. ML:3.8 0.0007725 0.68 AML other m 2024-01-05T21:53:48.01
MN.PDG.HNN. ML:3.9 0.000808 0.66 AML other m 2024-01-05T21:53:48.02
GE.MATE.HHN. ML:4.3 0.00202 1.58 AML other m 2024-01-05T21:53:48.88
IV.APRC.HHE. ML:4.8 0.002175 0.5 AML other m 2024-01-05T21:53:48.83
IV.APRC.HHN. ML:4.8 0.00229 0.56 AML other m 2024-01-05T21:53:48.66
IV.MTSN.HNN. ML:4.2 0.0009565 0.5 AML other m 2024-01-05T21:53:48.71
GE.MATE.HHE. ML:4.2 0.00156 0.36 AML other m 2024-01-05T21:53:51.39
XE.BIDON.HNN. ML:4.2 0.00138 0.52 AML other m 2024-01-05T21:53:51.51
XE.BIDON.HHN. ML:4.2 0.0013900000000000002 0.5 AML other m 2024-01-05T21:53:51.52
OT.OT11.EHN. ML:4.6 0.00145 1.42 AML other m 2024-01-05T21:53:51.94
MN.DIVS.HNE. ML:3.9 0.000247 0.64 AML other m 2024-01-05T21:53:52.19
MN.DIVS.HHN. ML:4.0 0.0003005 0.76 AML other m 2024-01-05T21:53:52.56
MN.DIVS.HNN. ML:4.0 0.0003145 0.68 AML other m 2024-01-05T21:53:52.58
IX.COL3.HNE.01 ML:4.4 0.0011685 0.46 AML other m 2024-01-05T21:53:53.14
IX.COL3.HHE.02 ML:4.4 0.0011225 0.46 AML other m 2024-01-05T21:53:53.14
IV.AMUR.HHE. ML:4.1 0.0012250000000000002 0.44 AML other m 2024-01-05T21:53:53.03
IV.AMUR.HNE. ML:4.1 0.0012250000000000002 0.44 AML other m 2024-01-05T21:53:53.04
MN.DIVS.HHE. ML:3.7 0.0001545 0.5 AML other m 2024-01-05T21:53:55.45
IV.CELI.HHN. ML:3.8 0.0006485 0.68 AML other m 2024-01-05T21:53:55.92
IV.CELI.HNN. ML:3.8 0.000661 1.32 AML other m 2024-01-05T21:53:55.10
IV.AIO.HHE. ML:4.3 0.000708 0.42 AML other m 2024-01-05T21:53:56.86
CR.HVAR.HHE. ML:4.3 0.0006255 0.66 AML other m 2024-01-05T21:53:57.43
IV.AMUR.HHN. ML:4.2 0.001395 1.48 AML other m 2024-01-05T21:53:58.17
CR.HVAR.HHN. ML:4.4 0.0006915000000000001 0.4 AML other m 2024-01-05T21:53:59.28
IV.AIO.HHN. ML:4.6 0.00116 0.5 AML other m 2024-01-05T21:53:59.68
IV.MIGL.HHN. ML:4.7 0.00468 0.62 AML other m 2024-01-05T21:53:59.68
IV.MIGL.HHE. ML:4.7 0.004375 1.1 AML other m 2024-01-05T21:54:00.30
IV.IFIL.HHE. ML:5.0 0.002665 0.7 AML other m 2024-01-05T21:54:03.44
IV.MGR.HHN. ML:4.0 0.000565 0.44 AML other m 2024-01-05T21:54:03.41
XE.T0701.HNN. ML:3.6 0.00029749999999999997 0.9 AML other m 2024-01-05T21:54:04.43
XE.T0701.HHN. ML:3.9 0.0005825 0.88 AML other m 2024-01-05T21:54:04.44
IV.VITU.HNN. ML:4.5 0.0009795000000000001 0.32 AML other m 2024-01-05T21:54:04.79
IV.MGR.HHE. ML:4.0 0.0005064999999999999 0.4 AML other m 2024-01-05T21:54:06.13
IV.MELA.HHE. ML:4.8 0.001835 0.6 AML other m 2024-01-05T21:54:06.33
IV.MELA.HNE. ML:4.8 0.00175 0.62 AML other m 2024-01-05T21:54:06.64
IV.CMPR.HNN. ML:4.6 0.0017749999999999999 1 AML other m 2024-01-05T21:54:08.78
IV.IFIL.HHN. ML:4.6 0.00113 1.36 AML other m 2024-01-05T21:54:08.11
IV.ACER.HHN. ML:4.5 0.0020549999999999995 0.42 AML other m 2024-01-05T21:54:09.77
IV.ACER.HNN. ML:4.5 0.001985 0.42 AML other m 2024-01-05T21:54:09.78
IV.MRVN.HHN. ML:4.0 0.0006979999999999999 0.74 AML other m 2024-01-05T21:54:09.46
IV.SACR.HNE. ML:4.2 0.0004455 0.88 AML other m 2024-01-05T21:54:12.31
IV.MRLC.HHN. ML:3.9 0.00038549999999999994 1.56 AML other m 2024-01-05T21:54:13.19
OT.OT12.EHE. ML:4.1 0.0005480000000000001 0.6 AML other m 2024-01-05T21:54:19.61
IV.SNAL.HHN. ML:4.2 0.000689 1.22 AML other m 2024-01-05T21:54:25.11
IV.SNAL.HNN. ML:4.2 0.0006815 0.86 AML other m 2024-01-05T21:54:26.11
IV.MELA.HNN. ML:4.6 0.001184 1.44 AML other m 2024-01-05T21:54:28.83
IV.MELA.HHN. ML:4.6 0.0012224999999999998 0.52 AML other m 2024-01-05T21:54:28.83
TDMT - Time Domain Moment Tensor
Meccanismi di sorgente sismica nell'area
Download
Tipo Descrizione Link
QuakeML - small Event, Origin, FocalMechanism Download
QuakeML - full Event, Origin, FocalMechanism, Amplitude, Arrival, Pick, Station Magnitude Download
Forme d'onda Segnali sismici in formato miniseed + resp Download